Location: Nelson
(38.9945°N, 93.0321°W)
Time: 16:27:21
(UTC+00:00)

ACS3 Solar Sail - Pass Details

Date: 26 June 2024
Orbit: 993 x 1023 km, 97.4° (Epoch: 21 July)

Event Time Altitude Azimuth Distance (km) Brightness Sun altitude
Exits shadow 04:16:03 25° 200° (SSW) 1,892 5.9 -21.7°
Maximum altitude 04:19:28 49° 262° (W) 1,265 5.5 -22.0°
Drops below altitude 10° 04:25:29 10° 337° (NNW) 2,765 8.3 -22.6°
Sets 04:28:04 0° 343° (NNW) 3,717 9.3 -22.8°
